• Em Portugal
  • Lista de países
  • Para 7 dias
  • Temperatura da água
  • Mapas de satélite
  • Mapa do tempo
  • Widgets de tempo
  • user-avatar
    Iniciar Sessão

    Previsão horária em The Bissagos Islands

    Hoje, 22 Janeiro, Segunda-feira

    Tempo Temperatura Precipitação Vento Pressão Humidade
    00:00 +26°C° 0 mm 4 m/s 759 mmHg 41%
    01:00 +25°C° 0 mm 4 m/s 759 mmHg 37%
    02:00 +25°C° 0 mm 4 m/s 759 mmHg 32%
    03:00 +25°C° 0 mm 4 m/s 758 mmHg 29%
    04:00 +25°C° 0 mm 4 m/s 758 mmHg 26%
    05:00 +25°C° 0 mm 4 m/s 758 mmHg 23%
    06:00 +26°C° 0 mm 4 m/s 759 mmHg 21%
    07:00 +27°C° 0 mm 5 m/s 759 mmHg 19%
    08:00 +28°C° 0 mm 5 m/s 759 mmHg 17%
    09:00 +32°C° 0 mm 5 m/s 759 mmHg 16%
    10:00 +35°C° 0 mm 5 m/s 759 mmHg 15%
    11:00 +37°C° 0 mm 5 m/s 759 mmHg 14%
    12:00 +39°C° 0 mm 5 m/s 759 mmHg 13%
    13:00 +40°C° 0 mm 5 m/s 758 mmHg 13%
    14:00 +41°C° 0 mm 5 m/s 757 mmHg 13%
    15:00 +38°C° 0 mm 4 m/s 757 mmHg 19%
    16:00 +37°C° 0 mm 4 m/s 757 mmHg 24%
    17:00 +35°C° 0 mm 4 m/s 757 mmHg 30%
    18:00 +33°C° 0 mm 5 m/s 758 mmHg 40%
    19:00 +29°C° 0 mm 5 m/s 758 mmHg 49%
    20:00 +27°C° 0 mm 5 m/s 759 mmHg 59%
    21:00 +26°C° 0 mm 5 m/s 759 mmHg 61%
    22:00 +26°C° 0 mm 4 m/s 759 mmHg 63%
    23:00 +25°C° 0 mm 4 m/s 759 mmHg 65%

    Amanhã, 23 Janeiro, Terça-feira

    Tempo Temperatura Precipitação Vento Pressão Humidade
    00:00 +25°C° 0 mm 4 m/s 759 mmHg 64%
    01:00 +24°C° 0 mm 3 m/s 759 mmHg 63%
    02:00 +24°C° 0 mm 3 m/s 758 mmHg 62%
    03:00 +24°C° 0 mm 3 m/s 758 mmHg 57%
    04:00 +24°C° 0 mm 2 m/s 758 mmHg 51%
    05:00 +23°C° 0 mm 2 m/s 758 mmHg 45%
    06:00 +24°C° 0 mm 2 m/s 758 mmHg 37%
    07:00 +26°C° 0 mm 2 m/s 759 mmHg 29%
    08:00 +27°C° 0 mm 3 m/s 759 mmHg 20%
    09:00 +30°C° 0 mm 3 m/s 759 mmHg 17%
    10:00 +34°C° 0 mm 3 m/s 759 mmHg 14%
    11:00 +37°C° 0 mm 3 m/s 760 mmHg 10%
    12:00 +38°C° 0 mm 3 m/s 759 mmHg 10%
    13:00 +39°C° 0 mm 3 m/s 758 mmHg 9%
    14:00 +42°C° 0 mm 3 m/s 757 mmHg 9%
    15:00 +39°C° 0 mm 3 m/s 757 mmHg 13%
    16:00 +37°C° 0 mm 4 m/s 757 mmHg 16%
    17:00 +35°C° 0 mm 5 m/s 757 mmHg 20%
    18:00 +32°C° 0 mm 5 m/s 758 mmHg 29%
    19:00 +29°C° 0 mm 5 m/s 758 mmHg 37%
    20:00 +26°C° 0 mm 5 m/s 759 mmHg 46%
    21:00 +25°C° 0 mm 5 m/s 759 mmHg 48%
    22:00 +25°C° 0 mm 4 m/s 759 mmHg 50%
    23:00 +25°C° 0 mm 4 m/s 760 mmHg 52%

    Depois de amanhã, 24 Janeiro, Quarta-feira

    Tempo Temperatura Precipitação Vento Pressão Humidade
    00:00 +23°C° 0 mm 4 m/s 759 mmHg 50%
    01:00 +23°C° 0 mm 4 m/s 759 mmHg 48%
    02:00 +23°C° 0 mm 4 m/s 759 mmHg 46%
    03:00 +22°C° 0 mm 4 m/s 759 mmHg 42%
    04:00 +22°C° 0 mm 4 m/s 759 mmHg 38%
    05:00 +21°C° 0 mm 4 m/s 758 mmHg 34%
    06:00 +22°C° 0 mm 4 m/s 759 mmHg 29%
    07:00 +25°C° 0 mm 4 m/s 759 mmHg 24%
    08:00 +26°C° 0 mm 3 m/s 760 mmHg 20%
    09:00 +30°C° 0 mm 3 m/s 759 mmHg 16%
    10:00 +34°C° 0 mm 3 m/s 759 mmHg 12%
    11:00 +38°C° 0 mm 3 m/s 759 mmHg 8%
    12:00 +39°C° 0 mm 3 m/s 759 mmHg 8%
    13:00 +40°C° 0 mm 2 m/s 758 mmHg 8%
    14:00 +41°C° 0 mm 2 m/s 757 mmHg 7%
    15:00 +39°C° 0 mm 3 m/s 757 mmHg 12%
    16:00 +37°C° 0 mm 4 m/s 757 mmHg 16%
    17:00 +36°C° 0 mm 4 m/s 756 mmHg 20%
    18:00 +33°C° 0 mm 4 m/s 757 mmHg 27%
    19:00 +29°C° 0 mm 4 m/s 758 mmHg 35%
    20:00 +26°C° 0 mm 4 m/s 758 mmHg 42%
    21:00 +26°C° 0 mm 4 m/s 758 mmHg 42%
    22:00 +25°C° 0 mm 4 m/s 759 mmHg 42%
    23:00 +25°C° 0 mm 4 m/s 759 mmHg 42%

    25 Janeiro, Quinta-feira

    Tempo Temperatura Precipitação Vento Pressão Humidade
    00:00 +23°C° 0 mm 4 m/s 759 mmHg 38%
    01:00 +23°C° 0 mm 5 m/s 758 mmHg 33%
    02:00 +23°C° 0 mm 5 m/s 758 mmHg 28%
    03:00 +22°C° 0 mm 4 m/s 758 mmHg 25%
    04:00 +22°C° 0 mm 4 m/s 758 mmHg 22%
    05:00 +22°C° 0 mm 4 m/s 758 mmHg 20%
    06:00 +23°C° 0 mm 4 m/s 758 mmHg 17%
    07:00 +25°C° 0 mm 4 m/s 758 mmHg 14%
    08:00 +27°C° 0 mm 4 m/s 758 mmHg 12%
    09:00 +30°C° 0 mm 5 m/s 758 mmHg 10%
    10:00 +35°C° 0 mm 5 m/s 758 mmHg 9%
    11:00 +39°C° 0 mm 5 m/s 758 mmHg 7%
    12:00 +40°C° 0 mm 5 m/s 758 mmHg 7%
    13:00 +41°C° 0 mm 4 m/s 757 mmHg 7%
    14:00 +42°C° 0 mm 4 m/s 756 mmHg 7%
    15:00 +40°C° 0 mm 5 m/s 756 mmHg 16%
    16:00 +37°C° 0 mm 5 m/s 756 mmHg 25%
    17:00 +35°C° 0 mm 6 m/s 756 mmHg 34%
    18:00 +32°C° 0 mm 6 m/s 757 mmHg 48%
    19:00 +28°C° 0 mm 6 m/s 757 mmHg 61%
    20:00 +26°C° 0 mm 5 m/s 758 mmHg 74%
    21:00 +25°C° 0 mm 5 m/s 758 mmHg 72%
    22:00 +25°C° 0 mm 4 m/s 758 mmHg 70%
    23:00 +25°C° 0 mm 3 m/s 758 mmHg 69%

    26 Janeiro, Sexta-feira

    Tempo Temperatura Precipitação Vento Pressão Humidade
    00:00 +24°C° 0 mm 3 m/s 758 mmHg 68%
    01:00 +23°C° 0 mm 2 m/s 758 mmHg 68%
    02:00 +23°C° 0 mm 2 m/s 757 mmHg 67%
    03:00 +23°C° 0 mm 2 m/s 757 mmHg 65%
    04:00 +22°C° 0 mm 1 m/s 757 mmHg 64%
    05:00 +22°C° 0 mm 1 m/s 757 mmHg 62%
    06:00 +23°C° 0 mm 2 m/s 758 mmHg 50%
    07:00 +25°C° 0 mm 3 m/s 758 mmHg 37%
    08:00 +26°C° 0 mm 3 m/s 759 mmHg 25%
    09:00 +30°C° 0 mm 4 m/s 759 mmHg 19%
    10:00 +34°C° 0 mm 4 m/s 758 mmHg 13%
    11:00 +38°C° 0 mm 4 m/s 758 mmHg 7%
    12:00 +40°C° 0 mm 4 m/s 758 mmHg 7%
    13:00 +41°C° 0 mm 4 m/s 757 mmHg 7%
    14:00 +42°C° 0 mm 3 m/s 756 mmHg 6%
    15:00 +40°C° 0 mm 4 m/s 756 mmHg 13%
    16:00 +37°C° 0 mm 5 m/s 756 mmHg 19%
    17:00 +35°C° 0 mm 6 m/s 756 mmHg 26%
    18:00 +32°C° 0 mm 6 m/s 757 mmHg 38%
    19:00 +28°C° 0 mm 6 m/s 757 mmHg 50%
    20:00 +26°C° 0 mm 6 m/s 758 mmHg 63%
    21:00 +24°C° 0 mm 6 m/s 758 mmHg 64%
    22:00 +25°C° 0 mm 5 m/s 758 mmHg 65%
    23:00 +23°C° 0 mm 4 m/s 759 mmHg 66%

    27 Janeiro, Sábado

    Tempo Temperatura Precipitação Vento Pressão Humidade
    00:00 +23°C° 0 mm 4 m/s 758 mmHg 65%
    01:00 +23°C° 0 mm 4 m/s 758 mmHg 64%
    02:00 +22°C° 0 mm 4 m/s 758 mmHg 63%
    03:00 +22°C° 0 mm 4 m/s 758 mmHg 60%
    04:00 +21°C° 0 mm 4 m/s 758 mmHg 58%
    05:00 +20°C° 0 mm 3 m/s 758 mmHg 55%
    06:00 +22°C° 0 mm 3 m/s 758 mmHg 48%
    07:00 +24°C° 0 mm 3 m/s 759 mmHg 41%
    08:00 +25°C° 0 mm 2 m/s 759 mmHg 34%
    09:00 +28°C° 0 mm 2 m/s 759 mmHg 27%
    10:00 +32°C° 0 mm 2 m/s 759 mmHg 20%
    11:00 +36°C° 0 mm 2 m/s 759 mmHg 13%
    12:00 +37°C° 0 mm 3 m/s 758 mmHg 14%
    13:00 +38°C° 0 mm 3 m/s 758 mmHg 15%
    14:00 +40°C° 0 mm 4 m/s 757 mmHg 16%
    15:00 +36°C° 0 mm 4 m/s 757 mmHg 26%
    16:00 +34°C° 0 mm 5 m/s 757 mmHg 36%
    17:00 +32°C° 0 mm 5 m/s 757 mmHg 45%
    18:00 +29°C° 0 mm 5 m/s 757 mmHg 55%
    19:00 +27°C° 0 mm 5 m/s 758 mmHg 64%
    20:00 +25°C° 0 mm 5 m/s 758 mmHg 74%
    21:00 +25°C° 0 mm 5 m/s 759 mmHg 71%
    22:00 +23°C° 0 mm 5 m/s 759 mmHg 68%
    23:00 +23°C° 0 mm 5 m/s 759 mmHg 65%
    Mostrar mais